This demonstration page uses our WeatherBlox Daily Observations layout. Learn more.

Left ArrowRight Arrow

Hourly Observations for August 23, 2015

Temp ( °F °C ) Dew Point ( °F °C ) Humidity (%) Winds ( mph kmh ) Pressure ( in mb ) Visibility ( mi km ) Precip ( " mm )
12:54 am 00:54 Clear 65 18.3 51 10.6 61 61 NNW 9 15 30.02 1017 10 16.0934 0 0
1:54 am 01:54 Clear 63 17.2 46 7.8 54 54 NNW 13 20 30.04 1017 10 16.0934 0 0
2:54 am 02:54 Clear 62 16.7 44 6.7 52 52 NNW 16 26 30.04 1017 10 16.0934 0 0
3:54 am 03:54 Clear 59 15 44 6.7 58 58 NW 15 24 30.05 1018 10 16.0934 0 0
4:54 am 04:54 Clear 59 15 43 6.1 56 56 NW 18 30 30.05 1018 10 16.0934 0 0
5:54 am 05:54 Clear 57 13.9 43 6.1 60 60 WNW 14 22 30.09 1019 10 16.0934 0 0
6:54 am 06:54 Sunny 56 13.3 43 6.1 62 62 WNW 12 19 30.13 1020 10 16.0934 0 0
7:54 am 07:54 Sunny 57 13.9 44 6.7 62 62 W 13 20 30.15 1021 10 16.0934 0 0
8:54 am 08:54 Sunny 60 15.6 45 7.2 58 58 WNW 15 24 30.16 1022 10 16.0934 0 0
9:54 am 09:54 Sunny 64 17.8 44 6.7 48 48 NW 15 24 30.16 1021 10 16.0934 0 0
10:54 am 10:54 Sunny 66 18.9 43 6.1 43 43 NNW 21 33 30.16 1021 10 16.0934 0 0
11:54 am 11:54 Sunny 68 20 44 6.7 42 42 NNW 17 28 30.18 1022 10 16.0934 0 0
12:54 pm 12:54 Sunny 70 21.1 44 6.7 39 39 NW 14 22 30.17 1022 10 16.0934 0 0
1:54 pm 13:54 Sunny 71 21.7 44 6.7 38 38 NW 12 19 30.17 1022 10 16.0934 0 0
2:54 pm 14:54 Sunny 74 23.3 44 6.7 34 34 WNW 14 22 30.16 1021 10 16.0934 0 0
3:54 pm 15:54 Sunny 75 23.9 44 6.7 33 33 NW 12 19 30.14 1021 10 16.0934 0 0
4:54 pm 16:54 Sunny 75 23.9 44 6.7 33 33 WNW 12 19 30.12 1020 10 16.0934 0 0
5:54 pm 17:54 Sunny 74 23.3 43 6.1 33 33 NW 12 19 30.11 1020 10 16.0934 0 0
6:54 pm 18:54 Sunny 74 23.3 44 6.7 34 34 WNW 10 17 30.11 1020 10 16.0934 0 0
9:54 pm 21:54 Clear 57 13.9 49 9.4 74 74 N 3 6 30.13 1020 10 16.0934 0 0
10:54 pm 22:54 Clear 54 12.2 50 10 87 87 Calm 30.14 1021 10 16.0934 0 0
11:54 pm 23:54 Clear 52 11.1 49 9.4 89 89 N 3 6 30.14 1021 10 16.0934 0 0

Powered by AerisWeather